Location: Gellin
(53.4498°N, 14.3207°E)
Time: 00:05:16
(UTC+00:00)

OBJECT-B - Pass Details

Date: 03 March 2021
Orbit: 414 x 427 km, 97.0° (Epoch: 09 April)

Event Time Altitude Azimuth Distance (km) Brightness Sun altitude
Exits shadow 18:04:51 23° 104° (ESE) 961 1.9 -12.7°
Maximum altitude 18:06:00 29° 68° (ENE) 812 1.7 -12.9°
Drops below altitude 10° 18:08:51 10° 6° (N) 1,516 3.6 -13.3°
Sets 18:11:00 0° 355° (N) 2,384 4.7 -13.6°
